map of MZH home
MZH - Airport
Location
City:  Merzifon, Amasya, Turkey
ICAO:LTAP
IATA:MZH

Details
Type:Airport (Aerodrome, Airfield)
Use:Military
Latitude:4049'46"N (40.829375)
Longitude:3531'19"E (35.521992)
Datum:WGS 1984
Elevation:1758 ft (536 m)
Variation:6.17E (WMM2015v2 magnetic declination)
0.10 annual change
Runways:1
Longest:9600 × 148 ft (2926 × 45 m), paved

Time
Time Zone:UTC+3
Local Time:

Weather
METAR:LTAP 041350Z 28003KT CAVOK 13/00 Q1023 NOSIG RMK RWY23 VRB02KT

Related Locations
Nearby:
Farthest:RVV: 11248 mi / 18102 km
Raivavae, Tubuai Islands, Austral Islands, PF

Find:

   beyond  
but within

Other Information
Maps:
NOTAMs:
Links:
Sources:

  
  • flag of Turkey
  

Airport Diagram

Airport diagram for MZH

Larger airport diagram (OBSOLETE) from NGA

Sectional Chart

Flight Planning
at skyvector.com

Satellite Image

Google Maps Satellite view

 

Copyright © 2004-2019 Karl L. Swartz. All rights reserved.
The Great Circle Mapper name and logo are trademarks of the Great Circle Mapper.
All other trademarks mentioned herein belong to their respective owners.
Please see credits for attibutions and further copyright information.

  Follow gcmap on Facebook Follow gcmap on Twitter GCmap on LinkedIn

hCard Microformat

Geo Microformat